C/1996 B2 (Hyakutake) |
Classification: Comet SPK-ID: 1000131 |
[ hide orbit diagram ]
For accurate long-term ephemerides, please instead use our Horizons system.This orbit viewer was implemented using two-body methods, and hence should not be used for determining accurate long-term trajectories (over several years or decades) or planetary encounter circumstances.
Orbital Elements at Epoch 2450157.5 (1996-Mar-15.0) TDB
Reference: JPL 73 (heliocentric ecliptic J2000)
Element | Value | Uncertainty (1-sigma) | Units |
e | .9998916470450123 | 1.0882e-06 | |
a | 2124.755444393889 | 21.347 | au |
q | .2302235310262354 | 8.979e-07 | au |
i | 124.9220493922234 | 6.3816e-05 | deg |
node | 188.045131992156 | 1.2303e-05 | deg |
peri | 130.1751209780967 | 0.00016116 | deg |
M | 359.9995230582502 | 7.1879e-06 | deg |
tp | 2450204.894144996451 (1996-May-01.39414500) | 1.6112e-05 | TDB |
period | 35773534.62343365 97942.60 | 5.3913e+05 1476 | d yr |
n | 1.006330528390616E-5 | 1.5166e-07 | deg/d |
Q | 4249.280665256751 | 42.693 | au |
|
Additional Model Parameters
Parameter | Value | Uncertainty (1-sigma) |
A1 [EST] | 2.687692871249691E-8 | 5.417E-10 |
A2 [EST] | 6.515068724785845E-10 | 9.876E-11 |
|
| | Orbit Determination Parameters
Additional Information
|
[ show covariance matrix ]
[ show close-approach data ]
Alternate Designations
Perihelion Year (est.) | New-Style Desig | Roman Numeral | Year/ Letter | 1996.3 | C/1996 B2 | | |
|
|